Hundvaag 1 weather for Feb 1994
Month no. 80
Obs.
Da.
Temp. Dew Point Precip. Wind
Speed
Wind gusts Cloud cover Press. Humidity Wind dir. Sunny OPT
01.02.1994 1,7   1,1             1  
02.02.1994 3,1   0,0                
03.02.1994 0,9   0,0                
04.02.1994 -4,4   7,9             1  
05.02.1994 -2,7   6,0                
06.02.1994 -1,7   0,0                
07.02.1994 -1,0   0,0             1  
08.02.1994 -0,1   0,1                
09.02.1994 2,2   0,0             1  
10.02.1994 -0,4   0,0             1  
11.02.1994 -4,0   0,0             1  
12.02.1994 -2,0   0,0             1  
13.02.1994 -4,6   0,0             1  
14.02.1994 -5,7   0,0             1  
15.02.1994 -5,6   0,0             1  
16.02.1994 -1,2   0,0             1  
17.02.1994 0,1   0,0             1  
18.02.1994 -4,1   0,0             1  
19.02.1994 -2,7   0,0             1  
20.02.1994 -1,6   0,0             1  
21.02.1994 -1,0   0,0                
22.02.1994 0,0   2,4                
23.02.1994 -2,2   0,0                
24.02.1994 -4,0   0,0             1  
25.02.1994 -7,0   0,0             1  
26.02.1994 -2,1   0,0                
27.02.1994 1,1   0,0                
28.02.1994 -0,4   0,0                
                       
                       
                       
Avrg/Sum -1,8   17,5             17